WORLDVIEW-1 (WV-1)

Last updated on Sun Dec 07 2025 00:02:30 GMT+0000 (Coordinated Universal Time)

1 32060U 07041A 25340.61467048 .00014417 00000+0 58807-3 0 9990 2 32060 97.3846 98.1831 0000700 100.0358 260.0958 15.24537198 13542
UTC large
Height (km)
Speed (km/s)
/
Latitude / Longitude
Inclination (degrees)
Orbital Period (minutes)
Azimuth
Elevation
Range (km)
Doppler Factor

Next 0 passes for location: London (51.5072 / 0.1276)

Sorry there are no passes over London.